SCP
0 0 0 0 0 0 0 0 0 0 0 0 0 1 0 0 0 0 0 0 0 0 1 1 1 1 1 1 1 1 1 1 1 1 2 3 3 3 2 2 2 1 1 1
0 0 0 0 0 0 0 0 0 0 0 0 1 1 1 0 0 0 0 0 0 0 1 1 1 1 1 1 1 1 1 1 1 1 2 2 3 3 2 2 2 1 1 1
0 0 0 0 0 0 0 0 0 0 0 0 1 1 1 0 0 0 0 0 0 0 1 1 1 1 1 1 1 1 1 1 1 1 1 2 2 2 2 2 2 2 1 1
0 0 0 0 0 0 0 0 0 0 0 1 1 1 0 0 0 0 0 0 0 0 1 1 1 1 1 1 1 0 0 1 1 1 2 2 2 2 2 2 2 2 2 2
0 0 0 0 0 0 0 0 0 0 1 1 1 0 0 0 0 0 0 0 0 0 1 1 1 1 1 0 0 0 0 0 1 1 2 2 2 2 1 1 1 1 1 1
0 0 0 0 0 0 0 0 0 1 1 1 0 0 0 0 0 0 0 0 0 0 1 1 1 1 1 0 0 0 0 0 1 1 1 2 2 2 1 1 1 1 1 1
0 0 0 0 0 0 0 1 1 1 1 0 0 0 0 0 0 0 0 0 0 0 1 1 1 1 1 1 0 0 0 0 1 1 1 2 2 2 1 1 1 1 1 1
0 0 0 0 0 0 0 1 1 1 1 0 0 0 0 0 0 1 1 0 0 0 1 1 1 1 1 1 1 1 0 0 1 1 1 2 2 2 1 1 1 1 0 0
0 0 0 0 0 0 0 0 1 0 0 0 0 0 0 0 0 1 1 0 0 0 0 1 1 2 2 1 1 1 1 1 1 1 1 2 2 2 1 1 1 1 0 0
0 0 0 0 0 0 0 0 0 0 0 0 0 0 0 0 0 1 1 0 0 0 0 0 1 1 2 1 1 1 1 1 1 1 1 2 2 2 1 1 1 1 1 0
0 0 0 0 0 0 0 0 0 0 0 0 0 0 0 0 0 1 1 0 0 0 0 0 0 1 1 1 1 1 1 1 0 1 1 1 1 1 1 1 1 1 0 0
0 0 0 0 0 0 0 0 0 0 0 0 0 0 0 0 0 1 0 0 0 0 0 0 0 0 0 0 0 1 0 0 0 0 1 1 1 1 0 0 0 0 0 0
0 0 0 0 0 0 0 0 0 0 0 0 0 0 0 0 0 0 0 0 0 0 0 0 0 0 0 0 0 0 0 0 0 0 0 1 0 0 0 0 0 0 0 0
0 0 0 0 0 0 0 0 0 0 0 0 0 0 0 0 0 0 0 0 0 0 0 0 0 0 0 0 0 0 0 0 0 0 0 0 0 0 0 0 0 0 0 0
0 0 0 0 0 0 0 0 0 0 0 0 0 0 0 0 0 0 0 0 0 0 0 0 0 0 0 0 0 0 0 0 0 0 0 0 0 0 0 0 0 0 0 0
0 0 0 0 0 0 0 0 0 0 0 0 0 0 0 0 0 0 0 0 0 0 0 0 0 0 0 0 0 0 0 0 0 0 0 0 0 0 0 0 0 0 0 0
0 0 0 0 0 0 0 0 0 0 0 0 0 0 0 0 0 0 0 0 0 0 0 0 0 0 0 0 0 0 0 0 0 0 0 0 0 0 0 0 0 0 0 0
0 0 0 0 0 0 0 0 0 0 0 0 0 0 0 0 0 0 0 0 0 0 0 0 0 0 0 0 0 0 0 0 0 0 0 0 0 0 0 0 0 0 0 0
0 0 0 0 0 0 0 0 0 0 0 0 0 0 0 0 0 0 0 0 0 0 0 0 0 0 0 0 0 0 0 0 0 0 0 0 0 0 0 0 0 0 0 0
0 0 0 0 0 0 0 0 0 0 0 0 0 0 0 0 0 0 0 0 0 0 0 0 0 0 0 0 0 0 0 0 0 0 0 0 0 0 0 0 0 0 0 0
0 0 0 0 0 0 0 0 0 0 0 0 0 0 0 0 0 0 0 0 0 0 0 0 0 0 0 0 0 0 0 0 0 0 0 0 0 0 0 0 0 0 0 0
0 0 0 0 0 0 0 0 0 0 0 0 0 0 0 0 0 0 0 0 0 0 0 0 0 0 0 0 0 0 0 0 0 0 0 0 0 0 0 0 0 0 0 0
0 0 0 0 0 0 0 0 0 0 0 0 0 0 0 0 0 0 0 0 0 0 0 0 0 0 0 0 0 0 0 0 0 0 0 0 0 0 0 0 0 0 0 0
0 0 0 0 0 0 0 0 0 0 0 0 0 0 0 0 0 0 0 0 0 0 0 0 0 0 0 0 0 0 0 0 0 0 0 0 0 0 0 0 0 0 0 0
0 0 0 0 0 0 0 0 0 0 0 0 0 0 0 0 0 0 0 0 0 0 0 0 0 0 0 0 0 0 0 0 0 0 0 0 0 0 0 0 0 0 0 0
0 0 0 0 0 0 0 0 0 0 0 0 0 0 0 0 0 0 0 0 0 0 0 0 0 0 0 0 0 0 0 0 0 0 0 0 0 0 0 0 0 0 0 0
0 0 0 0 0 0 0 0 0 0 0 0 0 0 0 0 0 0 0 0 0 0 0 0 0 0 0 0 0 0 0 0 0 0 0 0 0 0 0 0 0 0 0 0
Wind_Speed
10 9 10 10 10 9 10 10 9 7 5 3 1 1 1 2 2 2 2 2 2 1 1 1 1 1 1 2 1 1 1 2 2 2 2 2 3 3 3 3 4 4 4 3
11 11 11 12 11 11 10 10 10 9 6 3 2 2 1 1 2 2 2 2 2 1 1 0 1 1 1 1 2 1 1 1 0 1 2 2 2 2 2 2 3 3 4 4
9 8 10 11 8 8 8 8 8 7 4 3 3 3 3 2 2 1 1 1 1 1 1 1 1 1 1 1 1 1 1 1 1 1 2 2 2 2 3 3 3 3 3 3
7 8 10 3 2 3 4 5 4 3 2 2 3 2 2 2 2 1 1 1 1 1 1 1 1 1 1 1 1 2 2 2 1 1 1 1 1 2 2 2 3 3 4 4
5 7 8 4 2 3 4 4 2 2 2 3 3 3 2 2 3 2 1 1 0 1 1 1 1 1 1 1 1 2 2 2 2 1 0 1 1 2 2 2 2 2 2 3
6 7 7 1 2 4 4 4 2 2 2 3 4 3 3 4 3 2 2 2 2 1 1 1 1 1 1 1 1 2 2 2 2 1 1 2 2 2 1 2 2 2 3 3
8 8 5 2 3 3 3 2 6 5 4 4 4 4 4 4 4 3 2 2 2 2 1 1 1 1 1 1 2 2 1 1 2 2 2 2 2 1 1 1 1 2 2 2
6 7 4 3 2 1 3 4 5 5 5 5 4 5 5 4 4 4 3 2 2 2 2 1 1 1 1 2 2 1 1 1 1 2 2 1 1 1 1 1 1 2 1 1
3 2 2 3 4 3 4 4 4 4 4 5 5 5 5 4 3 3 3 2 1 1 2 1 1 1 1 2 1 1 1 1 1 1 1 1 1 1 1 1 1 1 1 1
5 2 1 2 3 4 4 4 5 4 4 5 5 5 5 4 3 2 2 2 1 1 1 2 2 2 1 1 1 1 1 1 1 1 1 1 1 1 0 1 1 1 1 1
7 4 2 2 2 3 5 5 5 4 4 4 4 4 5 5 3 2 2 1 1 1 2 2 2 2 2 1 1 1 2 1 1 1 1 1 1 0 1 1 2 2 1 1
6 5 4 4 3 4 4 4 5 5 5 4 4 4 4 4 3 2 2 1 1 1 2 2 2 2 2 2 2 2 1 0 1 1 1 1 1 1 3 2 2 2 2 1
6 6 5 5 3 3 4 4 5 5 5 5 4 3 4 3 3 3 3 2 2 2 2 2 2 2 1 2 2 2 1 0 0 1 1 2 1 1 1 2 2 1 1 2
4 4 5 4 4 4 4 4 4 5 5 4 3 3 3 3 3 2 2 1 2 2 2 2 2 2 2 2 2 2 1 1 0 1 1 1 1 1 2 2 1 0 1 2
5 5 5 4 3 3 4 4 4 4 4 3 3 3 3 3 3 2 2 1 1 2 2 2 2 2 2 2 2 1 1 0 1 1 1 1 1 1 1 1 1 1 2 2
4 3 4 4 4 4 4 4 4 4 4 4 3 3 3 2 2 2 2 1 1 1 2 2 2 2 2 2 2 1 1 2 2 1 1 1 1 1 1 1 1 2 2 2
4 4 4 4 4 5 4 4 4 4 4 4 3 3 2 2 1 1 1 1 1 1 2 2 2 2 2 2 1 1 1 1 2 1 1 1 1 1 1 1 2 2 2 2
4 3 4 4 5 4 4 4 3 3 3 4 3 2 2 1 1 1 1 1 1 1 1 1 2 2 2 2 1 1 1 1 1 1 1 1 1 1 1 2 2 2 2 2
3 3 3 4 4 4 4 3 3 3 3 3 2 2 1 1 1 1 1 1 1 1 1 1 2 2 2 2 2 1 1 1 1 1 1 2 2 1 1 1 2 2 2 2
2 2 3 3 4 4 3 3 2 2 2 2 2 2 1 1 0 1 0 0 0 0 1 2 1 1 1 2 2 1 1 1 1 1 1 1 1 1 1 1 2 2 2 2
2 2 3 3 3 3 3 2 2 2 2 2 2 2 1 1 1 0 0 0 0 1 1 2 1 1 1 1 1 1 1 1 1 1 1 1 1 1 1 1 1 1 1 1
3 2 3 2 2 2 2 2 2 2 2 1 1 1 1 1 0 0 0 0 0 2 1 1 1 2 2 1 1 1 1 1 1 1 1 1 1 1 1 1 1 1 1 1
2 2 2 2 2 2 2 2 1 1 1 2 1 1 1 1 0 1 0 0 1 1 1 1 2 2 1 1 0 1 1 1 1 1 1 1 1 1 1 1 1 1 1 1
2 2 2 1 2 1 1 1 1 1 1 1 1 1 1 1 0 0 1 1 1 1 1 2 3 2 1 1 1 1 1 1 1 1 1 1 1 1 1 1 1 1 1 1
1 1 2 2 2 1 1 1 1 0 0 1 1 1 1 1 1 1 1 1 2 2 1 1 2 1 1 1 1 1 1 1 1 1 1 1 1 1 1 1 1 1 1 1
1 1 1 2 1 1 1 1 1 1 1 1 1 0 0 1 1 1 1 1 2 2 1 1 1 1 1 1 1 1 1 2 2 2 1 1 1 1 1 1 1 1 1 1
1 1 1 1 1 1 1 1 1 1 1 1 0 0 0 1 1 1 1 1 1 2 1 1 1 1 1 1 1 1 1 2 2 2 1 1 1 1 1 1 1 1 1 1
Wind_Direction
277 276 279 274 269 260 259 265 270 279 283 292 347 53 87 83 75 76 83 93 100 101 114 131 147 147 145 155 165 171 188 203 199 190 191 189 184 189 191 190 193 191 190 190
275 270 269 270 260 254 254 263 270 274 278 297 332 16 360 57 71 66 44 60 50 52 66 169 166 154 159 158 165 172 178 188 179 206 189 186 191 192 196 192 193 196 198 194
278 271 272 260 253 244 245 252 265 273 288 343 352 2 358 22 65 73 43 56 17 330 308 286 271 196 184 181 162 159 157 148 170 223 195 193 201 195 200 197 195 209 212 197
280 275 258 254 309 283 259 262 273 280 325 343 347 354 360 342 344 335 349 18 349 312 300 290 295 275 206 176 171 167 170 177 182 214 210 198 205 218 211 201 204 213 218 211
265 271 268 252 286 300 281 275 311 324 337 337 327 307 279 336 340 338 3 344 264 267 277 287 297 274 228 202 188 177 187 189 164 171 198 190 219 234 226 216 212 218 220 214
260 265 268 286 18 341 297 260 2 337 339 334 324 299 304 336 340 340 3 8 4 1 342 308 275 248 225 227 212 207 193 172 153 167 191 214 222 228 248 230 218 226 234 224
253 261 268 2 6 337 286 3 16 7 3 355 340 332 330 339 357 13 13 15 10 358 332 297 287 233 227 249 245 229 189 161 155 179 205 209 207 220 236 236 232 233 232 219
248 254 254 46 37 4 357 10 0 2 6 357 343 337 341 346 353 6 5 4 358 344 325 314 301 254 236 256 264 237 176 163 184 197 216 195 174 197 209 217 240 239 239 228
259 268 24 26 20 17 349 343 345 348 349 341 330 331 337 334 341 352 346 338 343 336 330 340 332 296 256 263 273 260 171 194 211 196 175 162 151 165 194 190 198 259 248 242
276 241 296 351 358 349 333 329 333 333 328 320 319 326 326 320 324 333 337 330 329 324 328 339 336 328 314 321 309 256 224 227 199 173 131 96 116 139 159 182 190 214 257 264
277 282 274 289 312 320 321 324 324 322 316 316 314 314 318 313 317 320 316 304 306 301 308 316 330 345 354 349 317 272 240 225 180 138 132 119 90 72 162 146 151 163 206 236
275 289 290 290 291 305 308 314 318 322 321 314 303 304 310 309 314 314 306 311 299 308 315 324 336 336 351 342 316 295 272 237 139 139 138 136 133 63 51 82 95 110 114 106
291 304 301 300 286 283 286 297 304 305 302 301 303 305 307 308 310 306 301 324 319 322 319 325 333 340 0 344 325 322 317 330 102 134 144 150 157 155 127 51 67 96 131 120
294 296 288 286 291 297 293 292 293 294 295 298 305 310 309 308 311 308 312 331 328 323 329 339 347 350 358 353 339 328 339 23 80 141 144 166 176 179 173 164 157 129 166 150
270 275 276 283 291 298 302 298 294 291 292 293 297 302 306 306 310 315 324 353 352 332 333 345 354 353 359 355 340 340 8 27 116 109 114 125 131 160 164 158 141 126 102 110
269 272 268 270 279 285 286 288 289 292 298 307 311 314 309 304 318 333 340 358 334 320 331 344 349 353 5 6 355 2 47 45 56 72 84 101 119 126 120 119 118 117 117 112
256 252 255 262 270 273 272 278 282 288 298 300 299 299 296 306 317 315 322 3 4 351 349 341 348 5 15 14 2 358 70 102 99 95 94 84 93 111 111 104 102 100 102 103
269 264 263 262 263 266 269 276 275 282 289 292 291 299 305 299 292 300 310 335 25 13 354 351 20 17 25 26 5 17 68 98 100 101 98 91 90 86 88 97 102 99 95 86
272 268 272 279 281 272 262 263 266 278 289 291 286 281 276 285 296 303 320 355 352 333 339 20 32 19 23 38 31 47 75 94 89 84 94 98 90 81 89 96 102 107 115 112
282 290 291 288 283 278 276 274 271 272 278 282 282 275 268 275 293 296 8 356 316 19 25 29 29 27 33 47 40 35 70 92 95 88 85 101 107 94 89 93 98 107 113 123
270 276 278 272 273 277 276 273 264 267 274 267 263 270 277 284 284 251 136 316 9 53 48 43 41 47 51 41 32 42 74 84 83 86 100 108 115 110 101 98 100 105 112 116
272 264 265 269 278 282 279 269 260 268 282 283 284 278 277 269 280 337 136 170 111 92 82 91 88 75 61 41 59 59 64 77 83 79 86 98 106 109 105 100 103 104 106 109
270 264 267 278 279 283 288 269 253 254 265 262 260 258 252 251 201 170 183 106 103 95 95 105 104 100 61 49 83 85 88 87 91 92 85 87 92 92 97 98 105 109 107 99
281 283 286 287 282 274 267 266 250 257 271 281 264 250 224 204 220 112 110 118 102 107 94 120 122 120 89 100 107 98 97 97 93 90 84 74 77 81 82 89 98 98 94 73
297 292 278 270 258 242 240 235 198 218 265 286 278 256 227 184 159 130 117 122 128 120 109 131 133 122 110 110 115 121 114 112 106 95 86 86 78 73 67 64 66 63 64 74
288 279 274 274 273 227 215 201 202 207 197 219 257 252 124 112 115 117 128 135 135 128 118 120 138 142 115 104 102 107 104 95 88 89 90 91 90 85 75 64 47 45 33 23
272 280 286 286 297 270 221 199 193 196 195 195 216 207 152 127 122 129 131 125 127 127 126 121 121 119 114 107 101 95 95 96 97 102 106 104 100 94 87 60 41 28 26 18